Year,Month,Day,Hour,Minute,Value (Times are PST for temperature in C)
2008,07,16,00,00,14.80
2008,07,16,00,01,14.80
2008,07,16,00,02,14.80
2008,07,16,00,03,14.80
2008,07,16,00,04,14.70
2008,07,16,00,05,14.70
2008,07,16,00,06,14.70
2008,07,16,00,07,14.70
2008,07,16,00,08,14.60
2008,07,16,00,09,14.60
2008,07,16,00,10,14.60
2008,07,16,00,11,14.50
2008,07,16,00,12,14.50
2008,07,16,00,13,14.50
2008,07,16,00,14,14.50
2008,07,16,00,15,14.50
2008,07,16,00,16,14.50
2008,07,16,03,02,11.90
2008,07,16,03,03,11.90
2008,07,16,03,04,11.90
2008,07,16,03,05,11.90
2008,07,16,03,06,11.90
2008,07,16,03,07,11.90
2008,07,16,03,08,11.90
2008,07,16,03,09,11.90
2008,07,16,03,10,11.90
2008,07,16,03,11,11.90
2008,07,16,03,12,11.80
2008,07,16,03,13,11.80
2008,07,16,03,14,11.80
2008,07,16,03,15,11.80
2008,07,16,03,16,11.80
2008,07,16,03,17,11.80
2008,07,16,03,18,11.70
2008,07,16,03,19,11.70
2008,07,16,03,20,11.70
2008,07,16,03,21,11.70
2008,07,16,03,22,11.60
2008,07,16,03,23,11.60
2008,07,16,03,24,11.60
2008,07,16,03,25,11.60
2008,07,16,03,26,11.60
2008,07,16,03,27,11.60
2008,07,16,03,28,11.60
2008,07,16,03,29,11.60
2008,07,16,03,30,11.60
2008,07,16,03,31,11.60
2008,07,16,03,32,11.60
2008,07,16,03,33,11.60
2008,07,16,03,34,11.60
2008,07,16,03,35,11.60
2008,07,16,03,36,11.60
2008,07,16,03,37,11.60
2008,07,16,03,38,11.60
2008,07,16,03,39,11.60
2008,07,16,03,40,11.60
2008,07,16,03,41,11.60
2008,07,16,03,42,11.60
2008,07,16,03,43,11.60
2008,07,16,03,44,11.60
2008,07,16,03,45,11.40
2008,07,16,03,46,11.40
2008,07,16,03,47,11.40
2008,07,16,03,48,11.40
2008,07,16,03,49,11.40
2008,07,16,03,50,11.40
2008,07,16,03,51,11.30
2008,07,16,03,52,11.30
2008,07,16,03,53,11.30
2008,07,16,03,54,11.30
2008,07,16,03,55,11.20
2008,07,16,03,56,11.20
2008,07,16,03,57,11.20
2008,07,16,03,58,11.20
2008,07,16,03,59,11.10
2008,07,16,04,00,11.10
2008,07,16,04,01,11.10
2008,07,16,04,02,11.10
2008,07,16,04,03,11.10
2008,07,16,04,04,11.10
2008,07,16,04,05,11.00
2008,07,16,04,06,10.90
2008,07,16,04,07,10.90
2008,07,16,04,08,10.90
2008,07,16,04,09,10.90
2008,07,16,04,10,10.90
2008,07,16,04,11,10.90
2008,07,16,04,12,10.90
2008,07,16,04,13,10.90
2008,07,16,04,14,10.90
2008,07,16,04,15,10.90
2008,07,16,04,16,11.10
2008,07,16,04,17,11.10
2008,07,16,04,18,11.10
2008,07,16,04,19,11.10
2008,07,16,04,20,11.10
2008,07,16,04,21,11.10
2008,07,16,04,22,11.10
2008,07,16,04,23,11.10
2008,07,16,04,24,11.10
2008,07,16,04,25,11.10
2008,07,16,04,26,11.10
2008,07,16,04,27,11.10
2008,07,16,04,28,11.10
2008,07,16,04,29,11.10
2008,07,16,04,30,11.10
2008,07,16,04,31,11.10
2008,07,16,04,32,11.10
2008,07,16,04,33,11.10
2008,07,16,04,34,11.10
2008,07,16,04,35,11.10
2008,07,16,04,36,11.10
2008,07,16,04,37,11.00
2008,07,16,04,38,10.90
2008,07,16,04,39,10.90
2008,07,16,04,40,10.90
2008,07,16,04,41,10.90
2008,07,16,04,42,10.90
2008,07,16,04,43,10.90
2008,07,16,04,44,10.90
2008,07,16,04,45,10.90
2008,07,16,04,46,10.90
2008,07,16,04,47,10.90
2008,07,16,04,48,10.90
2008,07,16,04,49,10.90
2008,07,16,04,50,10.90
2008,07,16,04,51,10.90
2008,07,16,04,52,10.90
2008,07,16,04,53,10.80
2008,07,16,04,54,10.80
2008,07,16,04,55,10.80
2008,07,16,04,56,10.80
2008,07,16,04,57,10.80
2008,07,16,04,58,10.80
2008,07,16,04,59,10.80
2008,07,16,05,00,10.80
2008,07,16,05,01,10.80
2008,07,16,05,02,10.80
2008,07,16,05,03,10.80
2008,07,16,05,04,10.80
2008,07,16,05,05,10.80
2008,07,16,05,06,10.80
2008,07,16,05,07,10.80
2008,07,16,05,08,10.80
2008,07,16,05,09,10.80
2008,07,16,05,10,10.80
2008,07,16,05,11,10.80
2008,07,16,05,12,10.80
2008,07,16,05,13,10.90
2008,07,16,05,14,10.90
2008,07,16,05,15,10.90
2008,07,16,05,16,10.90
2008,07,16,05,17,10.90
2008,07,16,05,18,10.90
2008,07,16,05,19,10.80
2008,07,16,05,20,10.80
2008,07,16,05,21,10.80
2008,07,16,05,22,10.80
2008,07,16,05,23,10.80
2008,07,16,05,24,10.80
2008,07,16,05,25,10.80
2008,07,16,05,26,10.80
2008,07,16,05,27,10.80
2008,07,16,05,28,10.80
2008,07,16,05,29,10.80
2008,07,16,05,30,10.80
2008,07,16,05,31,10.80
2008,07,16,05,32,10.80
2008,07,16,05,33,10.80
2008,07,16,05,34,10.80
2008,07,16,05,35,10.80
2008,07,16,05,36,10.70
2008,07,16,05,37,10.70
2008,07,16,05,38,10.70
2008,07,16,05,39,10.70
2008,07,16,05,40,10.80
2008,07,16,05,41,10.80
2008,07,16,05,42,10.80
2008,07,16,05,43,10.80
2008,07,16,05,44,10.80
2008,07,16,05,45,10.80
2008,07,16,05,46,10.80
2008,07,16,05,47,10.80
2008,07,16,05,48,10.80
2008,07,16,05,49,10.80
2008,07,16,05,50,10.80
2008,07,16,05,51,10.80
2008,07,16,05,52,10.80
2008,07,16,05,53,10.80
2008,07,16,05,54,10.80
2008,07,16,05,55,10.70
2008,07,16,05,56,10.70
2008,07,16,05,57,10.70
2008,07,16,05,58,10.70
2008,07,16,05,59,10.70
2008,07,16,06,00,10.70
2008,07,16,06,01,10.70
2008,07,16,06,02,10.70
2008,07,16,06,03,10.70
2008,07,16,06,04,10.70
2008,07,16,06,05,10.70
2008,07,16,06,06,10.70
2008,07,16,06,07,10.70
2008,07,16,06,08,10.70
2008,07,16,06,09,10.70
2008,07,16,06,10,10.70
2008,07,16,06,11,10.70
2008,07,16,06,12,10.80
2008,07,16,06,13,10.80
2008,07,16,06,14,10.80
2008,07,16,06,15,10.80
2008,07,16,06,16,10.80
2008,07,16,06,17,10.80
2008,07,16,06,18,10.90
2008,07,16,06,19,10.90
2008,07,16,06,20,10.90
2008,07,16,06,21,10.90
2008,07,16,06,22,11.00
2008,07,16,06,23,11.10
2008,07,16,06,24,11.10
2008,07,16,06,25,11.20
2008,07,16,06,26,11.30
2008,07,16,06,27,11.30
2008,07,16,06,28,11.40
2008,07,16,06,29,11.40
2008,07,16,06,30,11.40
2008,07,16,06,31,11.50
2008,07,16,06,32,11.60
2008,07,16,06,33,11.60
2008,07,16,06,34,11.60
2008,07,16,06,35,11.70
2008,07,16,06,36,11.70
2008,07,16,06,37,11.80
2008,07,16,06,38,11.80
2008,07,16,06,39,11.90
2008,07,16,06,40,12.00
2008,07,16,06,41,12.00
2008,07,16,06,42,12.10
2008,07,16,06,43,12.10
2008,07,16,06,44,12.10
2008,07,16,06,45,12.20
2008,07,16,06,46,12.20
2008,07,16,06,47,12.30
2008,07,16,06,48,12.30
2008,07,16,06,49,12.40
2008,07,16,06,50,12.50
2008,07,16,06,51,12.50
2008,07,16,06,52,12.60
2008,07,16,06,53,12.60
2008,07,16,06,54,12.70
2008,07,16,06,55,12.70
2008,07,16,06,56,12.80
2008,07,16,06,57,12.80
2008,07,16,06,58,12.90
2008,07,16,06,59,13.00
2008,07,16,07,00,13.10
2008,07,16,07,01,13.20
2008,07,16,07,02,13.30
2008,07,16,07,03,13.30
2008,07,16,07,04,13.40
2008,07,16,07,05,13.50
2008,07,16,07,06,13.60
2008,07,16,07,07,13.60
2008,07,16,07,08,13.70
2008,07,16,07,09,13.70
2008,07,16,07,10,13.80
2008,07,16,07,11,13.80
2008,07,16,07,12,13.90
2008,07,16,07,13,14.00
2008,07,16,07,14,14.00
2008,07,16,07,15,14.10
2008,07,16,07,16,14.10
2008,07,16,07,17,14.20
2008,07,16,07,18,14.20
2008,07,16,07,19,14.30
2008,07,16,07,20,14.30
2008,07,16,07,21,14.40
2008,07,16,07,22,14.50
2008,07,16,07,23,14.50
2008,07,16,07,24,14.60
2008,07,16,07,25,14.60
2008,07,16,07,26,14.70
2008,07,16,07,27,14.80
2008,07,16,07,28,14.80
2008,07,16,07,29,14.80
2008,07,16,07,30,14.90
2008,07,16,07,31,14.90
2008,07,16,07,32,15.00
2008,07,16,07,33,15.00
2008,07,16,07,34,15.10
2008,07,16,07,35,15.10
2008,07,16,07,36,15.20
2008,07,16,07,37,15.20
2008,07,16,07,38,15.30
2008,07,16,07,39,15.30
2008,07,16,07,40,15.40
2008,07,16,07,41,15.40
2008,07,16,07,42,15.50
2008,07,16,07,43,15.60
2008,07,16,07,44,15.60
2008,07,16,07,45,15.70
2008,07,16,07,46,15.80
2008,07,16,07,47,15.80
2008,07,16,07,48,15.90
2008,07,16,07,49,16.10
2008,07,16,07,50,16.10
2008,07,16,07,51,16.20
2008,07,16,07,52,16.30
2008,07,16,07,53,16.40
2008,07,16,07,54,16.60
2008,07,16,07,55,16.70
2008,07,16,07,56,16.90
2008,07,16,07,57,17.10
2008,07,16,07,58,17.30
2008,07,16,07,59,17.30
2008,07,16,08,00,17.30
2008,07,16,08,01,17.40
2008,07,16,08,02,17.40
2008,07,16,08,03,17.30
2008,07,16,08,04,17.20
2008,07,16,08,05,17.00
2008,07,16,08,06,16.80
2008,07,16,08,07,16.60
2008,07,16,08,08,16.50
2008,07,16,08,09,16.40
2008,07,16,08,10,16.40
2008,07,16,08,11,16.30
2008,07,16,08,12,16.30
2008,07,16,08,13,16.30
2008,07,16,08,14,16.30
2008,07,16,08,15,16.40
2008,07,16,08,16,16.40
2008,07,16,08,17,16.40
2008,07,16,08,18,16.50
2008,07,16,08,19,16.70
2008,07,16,08,20,16.70
2008,07,16,08,21,16.70
2008,07,16,08,22,16.70
2008,07,16,08,23,16.70
2008,07,16,08,24,16.70
2008,07,16,08,25,16.70
2008,07,16,08,26,16.70
2008,07,16,08,27,16.70
2008,07,16,08,28,16.70
2008,07,16,08,29,16.70
2008,07,16,08,30,16.70
2008,07,16,08,31,16.70
2008,07,16,08,32,16.70
2008,07,16,08,33,16.70
2008,07,16,08,34,16.70
2008,07,16,08,35,16.70
2008,07,16,08,36,16.80
2008,07,16,08,37,16.90
2008,07,16,08,38,17.00
2008,07,16,08,39,17.00
2008,07,16,08,40,17.10
2008,07,16,08,41,17.20
2008,07,16,08,42,17.30
2008,07,16,08,43,17.30
2008,07,16,08,44,17.40
2008,07,16,08,45,17.50
2008,07,16,08,46,17.60
2008,07,16,08,47,17.70
2008,07,16,08,48,17.80
2008,07,16,08,49,17.80
2008,07,16,08,50,17.90
2008,07,16,08,51,17.90
2008,07,16,08,52,18.00
2008,07,16,08,53,18.10
2008,07,16,08,54,18.10
2008,07,16,08,55,18.20
2008,07,16,08,56,18.30
2008,07,16,08,57,18.40
2008,07,16,08,58,18.50
2008,07,16,08,59,18.60
2008,07,16,09,00,18.70
2008,07,16,09,01,18.70
2008,07,16,09,02,18.90
2008,07,16,09,03,18.90
2008,07,16,09,04,18.90
2008,07,16,09,05,18.90
2008,07,16,09,06,18.80
2008,07,16,09,07,18.80
2008,07,16,09,08,18.80
2008,07,16,09,09,18.70
2008,07,16,09,10,18.60
2008,07,16,09,11,18.40
2008,07,16,09,12,18.30
2008,07,16,09,13,18.20
2008,07,16,09,14,18.10
2008,07,16,09,15,18.00
2008,07,16,09,16,17.90
2008,07,16,09,17,17.90
2008,07,16,09,18,17.90
2008,07,16,09,19,17.80
2008,07,16,09,20,17.70
2008,07,16,09,21,17.70
2008,07,16,09,22,17.80
2008,07,16,09,23,17.80
2008,07,16,09,24,17.80
2008,07,16,09,25,17.80
2008,07,16,09,26,17.80
2008,07,16,09,27,17.90
2008,07,16,09,28,17.90
2008,07,16,09,29,17.90
2008,07,16,09,30,17.90
2008,07,16,09,31,18.00
2008,07,16,09,32,18.10
2008,07,16,09,33,18.30
2008,07,16,09,34,18.40
2008,07,16,09,35,18.50
2008,07,16,09,36,18.60
2008,07,16,09,37,18.60
2008,07,16,09,38,18.60
2008,07,16,09,39,18.60
2008,07,16,09,40,18.60
2008,07,16,09,41,18.60
2008,07,16,09,42,18.70
2008,07,16,09,43,18.70
2008,07,16,09,44,18.70
2008,07,16,09,45,18.70
2008,07,16,09,46,18.60
2008,07,16,09,47,18.70
2008,07,16,09,48,18.70
2008,07,16,09,49,18.80
2008,07,16,09,50,18.90
2008,07,16,09,51,19.00
2008,07,16,09,52,19.00
2008,07,16,09,53,18.90
2008,07,16,09,54,18.90
2008,07,16,09,55,19.00
2008,07,16,09,56,19.00
2008,07,16,09,57,18.90
2008,07,16,09,58,18.90
2008,07,16,09,59,19.00
2008,07,16,10,00,19.10
2008,07,16,10,01,19.10
2008,07,16,10,02,19.20
2008,07,16,10,03,19.10
2008,07,16,10,04,19.10
2008,07,16,10,12,19.50
2008,07,16,10,13,19.50
2008,07,16,10,15,19.80
2008,07,16,10,16,19.90
2008,07,16,10,17,19.90
2008,07,16,10,18,19.80
2008,07,16,10,19,19.70
2008,07,16,10,20,19.70
2008,07,16,10,21,19.50
2008,07,16,10,22,19.40
2008,07,16,10,23,19.30
2008,07,16,10,24,19.30
2008,07,16,10,25,19.40
2008,07,16,10,26,19.50
2008,07,16,10,27,19.50
2008,07,16,10,28,19.40
2008,07,16,10,29,19.30
2008,07,16,10,30,19.20
2008,07,16,10,31,19.10
2008,07,16,10,32,19.00
2008,07,16,10,33,18.90
2008,07,16,10,34,18.90
2008,07,16,10,35,18.90
2008,07,16,10,36,18.90
2008,07,16,10,37,18.90
2008,07,16,10,38,18.80
2008,07,16,10,39,18.80
2008,07,16,10,40,18.90
2008,07,16,10,41,18.90
2008,07,16,10,42,18.90
2008,07,16,10,43,18.90
2008,07,16,10,44,18.90
2008,07,16,10,45,18.90
2008,07,16,10,46,18.90
2008,07,16,10,47,19.10
2008,07,16,10,48,19.10
2008,07,16,10,49,19.20
2008,07,16,10,50,19.10
2008,07,16,10,51,19.10
2008,07,16,10,52,19.10
2008,07,16,10,53,19.20
2008,07,16,10,54,19.20
2008,07,16,10,55,19.30
2008,07,16,10,56,19.30
2008,07,16,10,57,19.20
2008,07,16,10,58,19.20
2008,07,16,10,59,19.30
2008,07,16,11,00,19.40
2008,07,16,11,01,19.40
2008,07,16,11,02,19.40
2008,07,16,11,03,19.50
2008,07,16,11,04,19.60
2008,07,16,11,05,19.60
2008,07,16,11,06,19.60
2008,07,16,11,07,19.50
2008,07,16,11,08,19.60
2008,07,16,11,09,19.70
2008,07,16,11,10,19.90
2008,07,16,11,11,19.90
2008,07,16,11,12,19.90
2008,07,16,11,13,19.70
2008,07,16,11,14,19.50
2008,07,16,11,15,19.30
2008,07,16,11,16,19.20
2008,07,16,11,17,19.20
2008,07,16,11,18,19.20
2008,07,16,11,19,19.30
2008,07,16,11,20,19.40
2008,07,16,11,21,19.50
2008,07,16,11,22,19.50
2008,07,16,11,23,19.50
2008,07,16,11,24,19.40
2008,07,16,11,25,19.30
2008,07,16,11,26,19.20
2008,07,16,11,27,19.10
2008,07,16,11,28,19.10
2008,07,16,11,29,19.10
2008,07,16,11,30,19.10
2008,07,16,11,31,19.10
2008,07,16,11,32,19.20
2008,07,16,11,33,19.30
2008,07,16,11,34,19.30
2008,07,16,11,35,19.30
2008,07,16,11,36,19.40
2008,07,16,11,37,19.50
2008,07,16,11,38,19.60
2008,07,16,11,39,19.70
2008,07,16,11,40,19.90
2008,07,16,11,41,20.10
2008,07,16,11,42,20.30
2008,07,16,11,43,20.30
2008,07,16,11,44,20.20
2008,07,16,11,45,20.20
2008,07,16,11,46,20.20
2008,07,16,11,47,20.20
2008,07,16,11,48,20.00
2008,07,16,11,49,19.90
2008,07,16,11,50,19.80
2008,07,16,11,51,19.80
2008,07,16,11,52,20.00
2008,07,16,11,53,20.10
2008,07,16,11,54,20.00
2008,07,16,11,55,19.90
2008,07,16,11,56,19.90
2008,07,16,11,57,19.80
2008,07,16,11,58,19.70
2008,07,16,11,59,19.80
2008,07,16,12,00,19.80
2008,07,16,12,01,19.80
2008,07,16,12,02,19.90
2008,07,16,12,03,19.90
2008,07,16,12,04,19.90
2008,07,16,12,05,19.80
2008,07,16,12,06,19.90
2008,07,16,12,07,20.10
2008,07,16,12,08,20.10
2008,07,16,12,09,19.90
2008,07,16,12,10,20.00
2008,07,16,12,11,20.20
2008,07,16,12,12,20.30
2008,07,16,12,13,20.40
2008,07,16,12,14,20.50
2008,07,16,12,15,20.70
2008,07,16,12,16,20.80
2008,07,16,12,17,20.90
2008,07,16,12,18,21.00
2008,07,16,12,19,20.90
2008,07,16,12,20,20.80
2008,07,16,12,21,20.60
2008,07,16,12,22,20.60
2008,07,16,12,23,20.80
2008,07,16,12,24,20.80
2008,07,16,12,25,20.80
2008,07,16,12,26,20.80
2008,07,16,12,27,20.80
2008,07,16,12,28,20.80
2008,07,16,12,29,20.80
2008,07,16,12,30,20.80
2008,07,16,12,31,20.90
2008,07,16,12,32,20.80
2008,07,16,12,33,20.80
2008,07,16,12,34,20.80
2008,07,16,12,35,20.80
2008,07,16,12,36,20.60
2008,07,16,12,37,20.50
2008,07,16,12,38,20.50
2008,07,16,12,39,20.40
2008,07,16,12,40,20.40
2008,07,16,12,41,20.50
2008,07,16,12,42,20.60
2008,07,16,12,43,20.80
2008,07,16,12,44,21.00
2008,07,16,12,45,21.20
2008,07,16,12,46,21.30
2008,07,16,12,47,21.30
2008,07,16,12,48,21.40
2008,07,16,12,49,21.60
2008,07,16,12,50,21.60
2008,07,16,12,51,21.70
2008,07,16,12,52,21.70
2008,07,16,12,53,21.70
2008,07,16,12,54,21.60
2008,07,16,12,55,21.60
2008,07,16,12,56,21.50
2008,07,16,12,57,21.50
2008,07,16,12,58,21.60
2008,07,16,12,59,21.60
2008,07,16,13,00,21.60
2008,07,16,13,01,21.60
2008,07,16,13,02,21.60
2008,07,16,13,03,21.60
2008,07,16,13,04,21.60
2008,07,16,13,05,21.60
2008,07,16,13,06,21.60
2008,07,16,13,07,21.70
2008,07,16,13,08,21.80
2008,07,16,13,09,21.90
2008,07,16,13,10,22.00
2008,07,16,13,11,22.00
2008,07,16,13,12,21.80
2008,07,16,13,13,21.60
2008,07,16,13,14,21.70
2008,07,16,13,15,21.70
2008,07,16,13,16,21.80
2008,07,16,13,17,21.70
2008,07,16,13,18,21.70
2008,07,16,13,19,21.70
2008,07,16,13,20,21.70
2008,07,16,13,21,21.90
2008,07,16,13,22,22.00
2008,07,16,13,23,22.10
2008,07,16,13,24,22.00
2008,07,16,13,25,21.90
2008,07,16,13,26,21.80
2008,07,16,13,27,21.80
2008,07,16,13,28,21.90
2008,07,16,13,29,22.00
2008,07,16,13,30,22.10
2008,07,16,13,31,22.20
2008,07,16,13,32,22.30
2008,07,16,13,33,22.40
2008,07,16,13,34,22.60
2008,07,16,13,35,22.50
2008,07,16,13,36,22.50
2008,07,16,13,37,22.50
2008,07,16,13,38,22.30
2008,07,16,13,39,22.30
2008,07,16,13,40,22.20
2008,07,16,13,41,22.20
2008,07,16,13,42,22.30
2008,07,16,13,43,22.50
2008,07,16,13,44,22.70
2008,07,16,13,45,22.90
2008,07,16,13,46,23.00
2008,07,16,13,47,23.20
2008,07,16,13,48,23.30
2008,07,16,13,49,23.40
2008,07,16,13,50,23.50
2008,07,16,13,51,23.60
2008,07,16,13,52,23.60
2008,07,16,13,53,23.70
2008,07,16,13,54,23.70
2008,07,16,13,55,23.60
2008,07,16,13,56,23.40
2008,07,16,13,57,23.30
2008,07,16,13,58,23.00
2008,07,16,13,59,22.90
2008,07,16,14,00,22.80
2008,07,16,14,01,22.60
2008,07,16,14,02,22.60
2008,07,16,14,03,22.60
2008,07,16,14,04,22.50
2008,07,16,14,05,22.50
2008,07,16,14,06,22.60
2008,07,16,14,07,22.60
2008,07,16,14,08,22.50
2008,07,16,14,09,22.40
2008,07,16,14,10,22.40
2008,07,16,14,11,22.40
2008,07,16,14,12,22.30
2008,07,16,14,13,22.20
2008,07,16,14,14,22.10
2008,07,16,14,15,22.10
2008,07,16,14,16,22.10
2008,07,16,14,17,22.00
2008,07,16,14,18,22.00
2008,07,16,14,19,22.00
2008,07,16,14,20,22.10
2008,07,16,14,21,22.30
2008,07,16,14,22,22.40
2008,07,16,14,23,22.50
2008,07,16,14,24,22.60
2008,07,16,14,25,22.60
2008,07,16,14,26,22.70
2008,07,16,14,27,22.70
2008,07,16,14,28,22.70
2008,07,16,14,29,22.70
2008,07,16,14,30,22.80
2008,07,16,14,31,22.80
2008,07,16,14,32,22.90
2008,07,16,14,33,23.00
2008,07,16,14,34,23.20
2008,07,16,14,35,23.40
2008,07,16,14,36,23.40
2008,07,16,14,37,23.50
2008,07,16,14,38,23.60
2008,07,16,14,39,23.60
2008,07,16,14,40,23.50
2008,07,16,14,41,23.40
2008,07,16,14,42,23.50
2008,07,16,14,43,23.60
2008,07,16,14,44,23.60
2008,07,16,14,45,23.50
2008,07,16,14,46,23.40
2008,07,16,14,47,23.40
2008,07,16,14,48,23.30
2008,07,16,14,49,23.20
2008,07,16,14,50,23.00
2008,07,16,14,51,22.90
2008,07,16,14,52,22.80
2008,07,16,14,53,22.80
2008,07,16,14,54,22.90
2008,07,16,14,55,23.00
2008,07,16,14,56,23.00
2008,07,16,14,57,23.00
2008,07,16,14,58,23.10
2008,07,16,14,59,23.10
2008,07,16,15,00,23.20
2008,07,16,15,01,23.30
2008,07,16,15,02,23.30
2008,07,16,15,03,23.10
2008,07,16,15,04,23.10
2008,07,16,15,05,23.10
2008,07,16,15,06,23.10
2008,07,16,15,07,23.10
2008,07,16,15,08,23.10
2008,07,16,15,09,22.90
2008,07,16,15,10,22.90
2008,07,16,15,11,22.90
2008,07,16,15,12,22.80
2008,07,16,15,13,22.70
2008,07,16,15,14,22.60
2008,07,16,15,15,22.70
2008,07,16,15,16,22.70
2008,07,16,15,17,22.70
2008,07,16,15,18,22.70
2008,07,16,15,19,22.80
2008,07,16,15,20,22.70
2008,07,16,15,21,22.60
2008,07,16,15,22,22.50
2008,07,16,15,23,22.50
2008,07,16,15,24,22.50
2008,07,16,15,25,22.40
2008,07,16,15,26,22.40
2008,07,16,15,27,22.50
2008,07,16,15,28,22.50
2008,07,16,15,29,22.40
2008,07,16,15,30,22.30
2008,07,16,15,31,22.40
2008,07,16,15,32,22.40
2008,07,16,15,33,22.40
2008,07,16,15,34,22.50
2008,07,16,15,35,22.60
2008,07,16,15,36,22.70
2008,07,16,15,37,22.80
2008,07,16,15,38,22.80
2008,07,16,15,39,22.80
2008,07,16,15,40,22.90
2008,07,16,15,41,22.90
2008,07,16,15,42,22.90
2008,07,16,15,43,22.90
2008,07,16,15,44,22.90
2008,07,16,15,45,23.00
2008,07,16,15,46,23.10
2008,07,16,15,47,23.10
2008,07,16,15,48,22.90
2008,07,16,15,49,22.90
2008,07,16,15,50,22.90
2008,07,16,15,51,22.90
2008,07,16,15,52,23.00
2008,07,16,15,53,23.10
2008,07,16,15,54,23.10
2008,07,16,15,55,23.20
2008,07,16,15,56,23.30
2008,07,16,15,57,23.30
2008,07,16,15,58,23.20
2008,07,16,15,59,23.20
2008,07,16,16,00,23.20
2008,07,16,16,01,23.30
2008,07,16,16,02,23.10
2008,07,16,16,03,22.90
2008,07,16,16,04,22.90
2008,07,16,16,05,23.00
2008,07,16,16,06,23.10
2008,07,16,16,07,23.20
2008,07,16,16,08,23.10
2008,07,16,16,09,23.10
2008,07,16,16,10,22.90
2008,07,16,16,11,23.00
2008,07,16,16,12,23.10
2008,07,16,16,13,23.20
2008,07,16,16,14,23.30
2008,07,16,16,15,23.30
2008,07,16,16,16,23.20
2008,07,16,16,17,23.10
2008,07,16,16,18,23.00
2008,07,16,16,19,22.90
2008,07,16,16,20,22.90
2008,07,16,16,21,22.90
2008,07,16,16,22,22.90
2008,07,16,16,23,22.80
2008,07,16,16,24,22.70
2008,07,16,16,25,22.60
2008,07,16,16,26,22.50
2008,07,16,16,27,22.50
2008,07,16,16,28,22.50
2008,07,16,16,29,22.50
2008,07,16,16,30,22.40
2008,07,16,16,31,22.40
2008,07,16,16,32,22.40
2008,07,16,16,33,22.50
2008,07,16,16,34,22.50
2008,07,16,16,35,22.70
2008,07,16,16,36,22.80
2008,07,16,16,37,22.90
2008,07,16,16,38,22.90
2008,07,16,16,39,22.90
2008,07,16,16,40,22.70
2008,07,16,16,41,22.50
2008,07,16,16,42,22.40
2008,07,16,16,43,22.30
2008,07,16,16,44,22.20
2008,07,16,16,45,22.10
2008,07,16,16,46,22.00
2008,07,16,16,47,22.10
2008,07,16,16,48,22.20
2008,07,16,16,49,22.30
2008,07,16,16,50,22.30
2008,07,16,16,51,22.30
2008,07,16,16,52,22.40
2008,07,16,16,53,22.30
2008,07,16,16,54,22.40
2008,07,16,16,55,22.20
2008,07,16,16,56,22.20
2008,07,16,16,57,22.20
2008,07,16,16,58,22.20
2008,07,16,16,59,22.20
2008,07,16,17,00,22.20
2008,07,16,17,01,22.20
2008,07,16,17,02,22.20
2008,07,16,17,03,22.20
2008,07,16,17,04,22.10
2008,07,16,17,05,22.20
2008,07,16,17,06,22.20
2008,07,16,17,07,22.20
2008,07,16,17,08,22.30
2008,07,16,17,09,22.40
2008,07,16,17,10,22.40
2008,07,16,17,11,22.50
2008,07,16,17,12,22.50
2008,07,16,17,13,22.60
2008,07,16,17,14,22.60
2008,07,16,17,15,22.60
2008,07,16,17,16,22.60
2008,07,16,17,17,22.60
2008,07,16,17,18,22.60
2008,07,16,17,19,22.50
2008,07,16,17,20,22.50
2008,07,16,17,21,22.50
2008,07,16,17,22,22.60
2008,07,16,17,23,22.60
2008,07,16,17,24,22.70
2008,07,16,17,25,22.80
2008,07,16,17,26,22.90
2008,07,16,17,27,22.90
2008,07,16,17,28,22.90
2008,07,16,17,29,22.90
2008,07,16,17,30,22.80
2008,07,16,17,31,22.70
2008,07,16,17,32,22.70
2008,07,16,17,33,22.70
2008,07,16,17,34,22.80
2008,07,16,17,35,22.90
2008,07,16,17,36,22.90
2008,07,16,17,37,22.90
2008,07,16,17,38,22.90
2008,07,16,17,39,22.90
2008,07,16,17,40,22.80
2008,07,16,17,41,22.60
2008,07,16,17,42,22.60
2008,07,16,17,43,22.60
2008,07,16,17,44,22.60
2008,07,16,17,45,22.60
2008,07,16,17,46,22.60
2008,07,16,17,47,22.60
2008,07,16,17,48,22.60
2008,07,16,17,49,22.50
2008,07,16,17,50,22.50
2008,07,16,17,51,22.50
2008,07,16,17,52,22.60
2008,07,16,17,53,22.60
2008,07,16,17,54,22.70
2008,07,16,17,55,22.60
2008,07,16,17,56,22.60
2008,07,16,17,57,22.60
2008,07,16,17,58,22.60
2008,07,16,17,59,22.60
2008,07,16,18,00,22.60
2008,07,16,18,01,22.50
2008,07,16,18,02,22.40
2008,07,16,18,03,22.40
2008,07,16,18,04,22.40
2008,07,16,18,05,22.50
2008,07,16,18,06,22.50
2008,07,16,18,07,22.50
2008,07,16,18,08,22.40
2008,07,16,18,09,22.40
2008,07,16,18,10,22.40
2008,07,16,18,11,22.40
2008,07,16,18,12,22.30
2008,07,16,18,13,22.30
2008,07,16,18,14,22.20
2008,07,16,18,15,22.10
2008,07,16,18,16,22.00
2008,07,16,18,17,22.00
2008,07,16,18,18,22.00
2008,07,16,18,19,22.00
2008,07,16,18,20,22.00
2008,07,16,18,21,22.00
2008,07,16,18,22,21.90
2008,07,16,18,23,21.90
2008,07,16,18,24,21.90
2008,07,16,18,25,21.90
2008,07,16,18,26,21.80
2008,07,16,18,27,21.70
2008,07,16,18,28,21.60
2008,07,16,18,29,21.60
2008,07,16,18,30,21.60
2008,07,16,18,31,21.60
2008,07,16,18,32,21.60
2008,07,16,18,33,21.60
2008,07,16,18,34,21.60
2008,07,16,18,35,21.60
2008,07,16,18,36,21.60
2008,07,16,18,37,21.60
2008,07,16,18,38,21.50
2008,07,16,18,39,21.40
2008,07,16,18,40,21.30
2008,07,16,18,41,21.30
2008,07,16,18,42,21.30
2008,07,16,18,43,21.20
2008,07,16,18,44,21.10
2008,07,16,18,45,21.10
2008,07,16,18,46,21.10
2008,07,16,18,47,21.10
2008,07,16,18,48,21.00
2008,07,16,18,49,21.00
2008,07,16,18,50,21.00
2008,07,16,18,51,20.90
2008,07,16,18,52,20.90
2008,07,16,18,53,20.80
2008,07,16,18,54,20.80
2008,07,16,18,55,20.70
2008,07,16,18,56,20.80
2008,07,16,18,57,20.70
2008,07,16,18,58,20.70
2008,07,16,18,59,20.60
2008,07,16,19,00,20.60
2008,07,16,19,01,20.60
2008,07,16,19,02,20.60
2008,07,16,19,03,20.60
2008,07,16,19,04,20.60
2008,07,16,19,05,20.70
2008,07,16,19,06,20.60
2008,07,16,19,07,20.60
2008,07,16,19,08,20.60
2008,07,16,19,09,20.60
2008,07,16,19,10,20.60
2008,07,16,19,11,20.60
2008,07,16,19,12,20.50
2008,07,16,19,13,20.50
2008,07,16,19,14,20.50
2008,07,16,19,15,20.50
2008,07,16,19,16,20.40
2008,07,16,19,17,20.40
2008,07,16,19,18,20.40
2008,07,16,19,19,20.40
2008,07,16,19,20,20.40
2008,07,16,19,21,20.50
2008,07,16,19,22,20.50
2008,07,16,19,23,20.40
2008,07,16,19,24,20.30
2008,07,16,19,25,20.30
2008,07,16,19,26,20.30
2008,07,16,19,27,20.20
2008,07,16,19,28,20.20
2008,07,16,19,29,20.20
2008,07,16,19,30,20.20
2008,07,16,19,31,20.20
2008,07,16,19,32,20.10
2008,07,16,19,33,20.00
2008,07,16,19,34,19.90
2008,07,16,19,35,19.80
2008,07,16,19,36,19.70
2008,07,16,19,37,19.60
2008,07,16,19,38,19.50
2008,07,16,19,39,19.40
2008,07,16,19,40,19.40
2008,07,16,19,41,19.40
2008,07,16,19,42,19.30
2008,07,16,19,43,19.20
2008,07,16,19,44,19.10
2008,07,16,19,45,19.00
2008,07,16,19,46,18.90
2008,07,16,19,47,18.90
2008,07,16,19,48,18.80
2008,07,16,19,49,18.80
2008,07,16,19,50,18.70
2008,07,16,19,51,18.70
2008,07,16,19,52,18.70
2008,07,16,19,53,18.60
2008,07,16,19,54,18.60
2008,07,16,19,55,18.50
2008,07,16,19,56,18.50
2008,07,16,19,57,18.40
2008,07,16,19,58,18.40
2008,07,16,19,59,18.30
2008,07,16,20,00,18.30
2008,07,16,20,01,18.20
2008,07,16,20,02,18.20
2008,07,16,20,03,18.20
2008,07,16,20,04,18.20
2008,07,16,20,05,18.20
2008,07,16,20,06,18.20
2008,07,16,20,07,18.10
2008,07,16,20,08,18.10
2008,07,16,20,09,18.00
2008,07,16,20,10,17.90
2008,07,16,20,11,17.90
2008,07,16,20,12,17.80